COSMOS 2436 (723) (32395 NORAD) Tracking and Keplerian Element Data

This shows tracking and keplerian element data for the satellite.

Feedback or suggestion? Click here.




ElementValue
Catalog32395
NameCOSMOS 2436 (723)
Epoch Orbit13989
Epoch Day353.40431284
Epoch Year2025
RAAN198.0487
Inclination64.3238
Eccentricity0.0017823
Argument of Perigee9.8735
Mean Anonmoly178.3327
Mean Motion2.13100261
Decay Rate1.05E-06
L11 32395U 07065C 25353.40431284 .00000105 00000+0 00000+0 0 9998
L22 32395 64.3238 198.0487 0017823 9.8735 178.3327 2.13100261139897



Live tracking and technical data element details for COSMOS 2436 (723) (NORAD 32395). COSMOS 2436 (723) can be tracked NOW for your location showing map with azimuth and elevation plus other details from your city location.







IsCatalogInMostPopularTable: catalog: 32395, numindb: 424
Update: records affected: 1



GetName: 32395 COSMOS 2436 (723)

Hit Count: updated at: Sat, 07 Mar 2026 07:11:41 GMT